Regional Weather Roundup
Issued by NWS

Home | Current Version | Previous Version | Graphics & Text | Print | Product List | Glossary On
Versions: 1 2 3 4 5 6 7 8 9 10 11 12 13 14 15 16 17 18 19 20 21 22 23 24 25 26 27
000
ASUS45 KPSR 241110
RWRAZ

ARIZONA HOURLY REGIONAL WEATHER ROUNDUP
NATIONAL WEATHER SERVICE PHOENIX AZ
400 AM MST FRI FEB 24 2017

NOTE: FAIR INDICATES FEW OR NO CLOUDS BELOW 12,000 FEET WITH NO
SIGNIFICANT WEATHER AND/OR OBSTRUCTIONS TO VISIBILITY.

AZZ001>003-036-241200-
NORTHWEST ARIZONA

CITY           SKY/WX    TMP DP  RH WIND       PRES   REMARKS
BULLHEAD CITY  CLEAR     46  21  36 CALM      30.06R
KINGMAN        CLEAR     27   4  37 CALM      30.00F
$$

AZZ004>008-015-016-018-241200-
NORTH CENTRAL ARIZONA

CITY           SKY/WX    TMP DP  RH WIND       PRES   REMARKS
GRAND CANYON   CLEAR     18  10  71 W3        29.93S
WILLIAMS       CLEAR     18   7  62 CALM      29.94S
PRESCOTT       CLEAR     25  14  63 S3        29.98R
FLAGSTAFF      CLEAR     20   5  52 W9        29.91S WCI   9
PAYSON         CLEAR     30  19  64 CALM      29.99S
PAGE           CLEAR     33   7  33 W3        29.91R
$$

AZZ009>014-017-241200-
NORTHEAST ARIZONA

CITY           SKY/WX    TMP DP  RH WIND       PRES   REMARKS
WINSLOW        CLEAR     22  12  65 CALM      29.95F
SAINT JOHNS    CLOUDY    31  16  54 W16       29.92R WCI  20
WINDOW ROCK    CLEAR     24   6  46 W9        29.87S WCI  14
SHOW LOW       CLOUDY    25  16  68 S8        29.95S WCI  16
$$

AZZ023-241200-
GREATER PHOENIX AREA

CITY           SKY/WX    TMP DP  RH WIND       PRES   REMARKS
PHOENIX        CLEAR     49  24  37 W5        30.00S
BUCKEYE        CLEAR     36  36 100 N3        30.02S
LUKE AFB       CLEAR     41  32  71 NE3       30.00S
DEER VALLEY    CLEAR     39  33  79 CALM      30.00R
SCOTTSDALE     CLEAR     41  33  73 CALM      30.02R
MESA-GATEWAY   CLEAR     37  32  81 SE6       30.02S WCI  33
$$

AZZ027-028-241200-
SOUTHWEST MARICOPA COUNTY AND PINAL COUNTY

CITY           SKY/WX    TMP DP  RH WIND       PRES   REMARKS
CASA GRANDE    NOT AVBL
GILA BEND      FAIR     N/A N/A N/A S7          N/A
$$

AZZ503-504-507>509-241200-
SOUTHEAST ARIZONA

CITY           SKY/WX    TMP DP  RH WIND       PRES   REMARKS
TUCSON         CLEAR     39  19  44 S5        30.04R
DAVIS-MONTHAN  CLEAR     35  21  56 S6        30.02S WCI  30
NOGALES        CLEAR     33  22  63 E6        30.01S WCI  28
SIERRA VISTA   CLEAR     36  16  44 NW10      30.00R WCI  28
DOUGLAS        CLEAR     31  17  56 N9        29.99S WCI  23
SAFFORD        CLEAR     39  16  39 NW7       29.97R WCI  34
$$

AZZ020-021-025-026-031-241200-
SOUTHWEST ARIZONA

CITY           SKY/WX    TMP DP  RH WIND       PRES   REMARKS
YUMA           CLEAR     49  33  54 N3        30.05R
$$

CAZ031-033-041-043-047-048-061-241200-
SOUTHERN CALIFORNIA

CITY           SKY/WX    TMP DP  RH WIND       PRES   REMARKS
DOWNTOWN L.A.  CLEAR     47  21  35 CALM      30.11F
L.A. AIRPORT   CLEAR     48  20  32 CALM      30.11F
SAN DIEGO      PTCLDY    48  36  63 N3        30.13F
BURBANK        CLEAR     41  18  39 N6        30.09F
ONTARIO        CLEAR     41  32  70 NE3       30.09F
RIVERSIDE      CLEAR     41  34  76 NE5       30.11S
PALM SPRINGS   CLEAR     48  36  63 SW3       30.07R
EL CENTRO NAS  CLEAR     47  27  45 NW10      30.07S
IMPERIAL       CLEAR     44  30  57 W5        30.05S
BLYTHE         CLEAR     48  24  39 N12       30.05S
NEEDLES        CLEAR     49  25  39 CALM      30.05R
$$

NVZ020-UTZ003-241200-
SOUTHERN NEVADA-UTAH

CITY           SKY/WX    TMP DP  RH WIND       PRES   REMARKS
LAS VEGAS      CLEAR     40  16  37 S3        30.03R
SALT LAKE CITY FLURRIES  27  24  89 S3        29.94S
$$

NMZ009-TXZ055-241200-
NEW MEXICO-WEST TEXAS

CITY           SKY/WX    TMP DP  RH WIND       PRES   REMARKS
ALBUQUERQUE    MOCLDY    33  20  58 W7        29.86R WCI  27
EL PASO        CLEAR     50   7  17 W13G21    29.89R
$$


........................KEY........................
SKY/WX - SKY CONDITION/WEATHER
TMP    - TEMPERATURE IN FAHRENHEIT
DP     - DEW POINT IN FAHRENHEIT
RH     - RELATIVE HUMIDITY IN PERCENT
WIND   - DIRECTION AND SPEED IN MILES PER HOUR (MPH)
VRB    - VARIABLE WIND DIRECTION
PRES   - MEAN SEA LEVEL PRESSURE IN INCHES OF MERCURY
         F - FALLING PRESSURE   R - RISING PRESSURE
         S - STEADY PRESSURE
VSB    - VISIBILITY IN MILES
HX     - HEAT INDEX IN FAHRENHEIT
WCI    - WIND CHILL INDEX IN FAHRENHEIT
TC     - TEMPERATURE IN CELSIUS WHICH IS ALSO KNOWN AS
         TEMPERATURE IN CENTIGRADE
AFB    - AIR FORCE BASE
         LUKE AFB IS LUKE AIR FORCE BASE
         DAVIS-MONTHAN IS DAVIS-MONTHAN AIR FORCE BASE
NAS    - NAVAL AIR STATION
         EL CENTRO NAS IS EL CENTRO NAVAL AIR STATION
N/A    - NOT AVAILABLE





USA.gov is the U.S. government's official web portal to all federal, state and local government web resources and services.